Location: Sears
(37.7625°N, 100.1060°W)
Time: 21:47:29
(UTC+00:00)

SL-16 R/B - Pass Details

Date: 29 October 2020
Orbit: 842 x 846 km, 71.0° (Epoch: 01 December)

Event Time Altitude Azimuth Distance (km) Brightness Sun altitude
Rises 12:18:14 0° 340° (NNW) 3,412 5.1 -9.5°
Reaches altitude 10° 12:20:43 10° 344° (NNW) 2,473 4.4 -9.0°
Maximum altitude 12:26:21 64° 66° (ENE) 933 2.7 -7.9°
Drops below altitude 10° 12:31:57 10° 148° (SSE) 2,459 5.3 -6.8°
Sets 12:34:25 0° 151° (SSE) 3,390 6.0 -6.4°
